星链-31815 (STARLINK-31815 )

导读 | 星芒AI

STARLINK-31815 是 SpaceX 星链计划中的一颗低轨通信卫星,属于星链第三代组网卫星的一部分。该卫星于2023年发射,旨在为全球用户提供高速互联网服务,特别是在偏远和网络覆盖不足的地区。它运行在约550公里高的近地轨道,具备先进的通信技术和自动避障功能,以确保运行安全和高效的数据传输。星链项目通过部署大量此类卫星,构建全球覆盖的宽带网络系统。

基本信息
目录编号:
59801
目录名称:
STARLINK-31815
国际标识:
2024-093V
轨道中心:
EARTH
卫星名称:
星链-31815
卫星全名:
星链-31815 (STARLINK-31815 )
卫星状态:
在轨 (已飞行533 天)
发射日期:
2024-05-18 UTC
国别 :
美国 (US)
星等 :
--
轨道信息
数据来源 国际轨道数据
星历时间: 2025-11-01T19:10:54+0800
22小时前
查看轨道信息
半长轴: 6861.232km
偏心率: 0.0001443
轨道倾角: 43.005°
近地点辐角 272.878°
升交点赤经 213.177°
平近点角 87.190°
近地点: 482.106km
远地点: 484.088km
周期: 94.268分钟
每日圈数: 15.275648
详细信息
固有亮度:
5
最大亮度:
1.5
卫星平台:
Starlink v2.0 mini
覆盖范围:
全球
运营商:
太空探索技术公司
运营商所在国:
美国
制造商(研发单位):
太空探索技术公司
制造商所在国:
美国
使用方式:
暂无
卫星简介
星链(Starlink)计划是由太空探索技术公司(SpaceX)提出的一个巨型低轨卫星互联网星座项目,计划在2019年至2024年间在太空搭建由约1.2万颗卫星组成的“星链”网络,其中1584颗将部署在地球上空550千米处的近地轨道,并从2020年开始工作。该卫星仍在工作。
2D轨道图
3D轨道图
轨道高度分析图
轨道倾角分析图
轨道综合分析图
查看轨道综合分析图